Volver al catálogo

STARLINK-38262

ActivoComunicacionesSSO
NORAD 100391·PAYLOAD·🇺🇸 United States

Lanzado Aug 19, 2026 desde Vandenberg Space Force Base

Loading…

Próximos Pases (próximas 24 horas)

TLE

ActualizadoSource: Space-Track

Época: Sep 14, 2026, 20:40 UTC

1 A0391U 26190W   26257.86171622  .00224805  00000-0  14666-2 0  9992
2 A0391  97.2828 111.8734 0002125  87.3725 272.7784 15.75222544  5456

Sigue STARLINK-38262 en tiempo real con AllMySat

Download on the App Store